Lexington Weather

Lexington, Massachusetts, USA

43°F
9/19/2020 7:21am 
  • Lexington Conditions: Clear
  • Temperature: 42.8°F / 6.0°CColder 0.5°F than last hour.
  • Dew Point: 35.1°FDecreased 0.5°Fsince last hour.
  • Relative Humidity: 74
  • Wind: Wind from NNE NNE 1 mph, 10-min avg: 1 mph, gust: 2 mph
  • Barometer: 30.22 inRising 0.02  inHg/hr Rising Slowly
  • Visibility: 10 miles
  • Rain Today: 0.00 in
  •   
Southeast Middlesex County - Special Weather Statement
 - SEE ALL NEARBY ALERTS -

Regional Weather Roundup
for Boston / Norton, MA

        
000
ASUS41 KBOX 170404
RWRBOX

REGIONAL WEATHER ROUNDUP
NATIONAL WEATHER SERVICE BOSTON/NORTON MA
1200 AM EDT THU SEP 17 2020

NOTE:  "FAIR" INDICATES FEW OR NO CLOUDS BELOW 12,000 FEET WITH NO 
SIGNIFICANT WEATHER AND/OR OBSTRUCTIONS TO VISIBILITY.

MAZALL-170500-
EASTERN MASSACHUSETTS
  
CITY           SKY/WX    TMP DP  RH WIND       PRES   REMARKS
BOSTON         PTCLDY    62  55  77 SW13      30.09S                  
BEVERLY        CLEAR     63  55  75 SW13      30.08F                  
LAWRENCE       CLEAR     61  55  81 S8        30.09F                  
BEDFORD        CLEAR     59  54  83 S7        30.08S                  
BLUE HILL        N/A     60  56  86 S20G30    30.08F                  
NORWOOD        CLEAR     63  56  78 SW9       30.10S                  
MARSHFIELD     MOCLDY    64  59  82 SW8       30.10S                  
PLYMOUTH       CLEAR     62  58  86 SW9       30.12S                  
TAUNTON        PTCLDY    65  58  78 SW3       30.11S                  
NEW BEDFORD    CLEAR     62  59  90 S3        30.12F                  
$$

MAZALL-170500-
CAPE COD AND THE ISLANDS
  
CITY           SKY/WX    TMP DP  RH WIND       PRES   REMARKS
FALMOUTH       CLEAR     64  59  82 SW14      30.12F                  
HYANNIS        CLEAR     67  61  81 SW14      30.11F                  
CHATHAM        PTCLDY    67  62  84 SW9G18    30.13F                  
PROVINCETOWN   CLEAR     64  60  87 SW13      30.12F                  
NANTUCKET      MOCLDY    67  63  87 S8        30.15F                  
MARTHAS VNYRD  CLEAR     65  62  90 SW7       30.13F                  
$$
 
MAZALL-170500-
CENTRAL AND WESTERN MASSACHUSETTS
  
CITY           SKY/WX    TMP DP  RH WIND       PRES   REMARKS
WORCESTER      CLEAR     58  53  84 SW18      30.09F                  
FITCHBURG      CLEAR     62  53  72 SE6       30.08F                  
ORANGE         CLEAR     60  54  80 SW7       30.10S                  
SPRINGFIELD    CLEAR     58  54  85 S3        30.08F                  
WESTFIELD      CLEAR     57  54  89 S5        30.09F                  
NORTH ADAMS    CLEAR     60  51  72 VRB7      30.07F                  
PITTSFIELD     CLEAR     56  51  84 VRB3      30.08F                  
$$
 
RIZALL-170500-
RHODE ISLAND
  
CITY           SKY/WX    TMP DP  RH WIND       PRES   REMARKS
PROVIDENCE     PTCLDY    61  58  90 SW7       30.12F                  
NEWPORT        CLEAR     67  61  81 SW7       30.12F                  
BLOCK ISLAND   CLOUDY    67  62  84 SW10      30.14S                  
SMITHFIELD     PTCLDY    59  58  96 VRB5      30.12S                  
WESTERLY       CLOUDY    67  60  78 SW7       30.13F                  
$$
 
CTZALL-170500-
CONNECTICUT
  
CITY           SKY/WX    TMP DP  RH WIND       PRES   REMARKS
BRADLEY INTL   MOCLDY    57  54  89 S8        30.10F                  
HARTFORD       CLEAR     59  54  83 CALM      30.11S                  
BRIDGEPORT     MOCLDY    70  58  65 SW15      30.12S                  
DANBURY        CLEAR     57  54  89 CALM      30.13F                  
GROTON         MOCLDY    67  62  84 SW13      30.12F                  
NEW HAVEN      PTCLDY    70  58  65 SW8       30.12F                  
CHESTER        NOT AVBL                                               
MERIDEN        CLEAR     54  52  93 CALM      30.12S                  
WILLIMANTIC    PTCLDY    53  52  96 CALM      30.13S                  
OXFORD         PTCLDY    58  56  93 CALM      30.14S                  
$$

MEZ002-015-021-024-NHZ003-005-008-011-012-014-VTZ005-008-170500-
NORTHERN NEW ENGLAND
  
CITY           SKY/WX    TMP DP  RH WIND       PRES   REMARKS
PORTLAND ME    CLEAR     63  54  72 S9G17     30.02F                  
BANGOR ME      PTCLDY    62  53  72 S10G20    29.95F                  
CONCORD NH     CLEAR     59  52  77 SE3       30.05F                  
MANCHESTER NH  PTCLDY    62  53  72 S7        30.05S                  
NASHUA NH      CLEAR     60  57  89 CALM      30.07F                  
PORTSMOUTH NH  PTCLDY    61  53  75 SW10      30.04F                  
JAFFREY NH     CLEAR     59  52  77 SW7       30.08S                  
KEENE NH       CLEAR     57  53  86 S3        30.07F                  
BURLINGTON VT  CLEAR     63  48  58 S16G26    29.94F                  
MT. WASHINGTON PTCLDY    46  18  31 W48G62      N/A                   
$$

NYZ052-076-170500-
EASTERN NEW YORK
  
CITY           SKY/WX    TMP DP  RH WIND       PRES   REMARKS
ALBANY         MOCLDY    56  51  84 SE8       30.06S                  
NEW YORK CITY  CLOUDY    69  56  62 SW9       30.11F                  
$$
 
ANZALL-170500-
MARINE OBSERVATIONS
  
STATION/POSITION TIME  TEMP    WIND        PRES    VSBY  WAVE
                       AIR SEA DIR/SP/G                  HT/PER
                 (UTC) (F)     (DEG/KT/KT) (MB)    (MI)  (FT/S)
BOSTON BUOY      0350   64 64  200/ 14/ 16 1017.8F         3/11
BUZZARDS BAY     0300          220/ 17/ 20 1021.2F
NANTUCKET SOUND  0340      70  220/ 12/ 16   N/A
MASS BAY-STELLWA 0304   63     240/ 16/ 19 1016.7R  1 7/8  4/ 4
ISLE OF SHOALS   NOT AVBL
S OF BLOCK IS    0326      70                N/A           4/11
$$

......................KEY.........................
  SKY/WX - SKY CONDITION/PRESENT WEATHER
  TMP    - TEMPERATURE IN FAHRENHEIT
  DWPT   - DEWPOINT IN FAHRENHEIT
  RH     - RELATIVE HUMIDITY IN PERCENT
  WIND   - DIRECTION AND SPEED IN MPH
  PRES   - MEAN SEA LEVEL PRESSURE IN INCHES OF HG
  WCI    - WIND CHILL INDEX
  VSB    - VISIBILITY IN MILES
  HX     - HEAT INDEX
  TC     - TEMPERATURE IN CELSIUS
  VRB    - VARIABLE WIND DIRECTION
  N/A    - NOT AVAILABLE
  
      

Other recent Regional Weather Roundups

Sat Sep 19, 7:04am

Sat Sep 19, 6:04am

Sat Sep 19, 5:04am

Sat Sep 19, 4:04am

Sat Sep 19, 3:04am

Sat Sep 19, 2:04am

Sat Sep 19, 1:04am

Sat Sep 19, 12:04am

Fri Sep 18, 11:05pm

Fri Sep 18, 10:04pm

Fri Sep 18, 9:04pm

Fri Sep 18, 8:04pm

Fri Sep 18, 7:04pm

Fri Sep 18, 6:04pm

Fri Sep 18, 5:05pm

Fri Sep 18, 4:04pm

Fri Sep 18, 3:05pm

Fri Sep 18, 2:04pm

Fri Sep 18, 1:04pm

Fri Sep 18, 12:04pm

Fri Sep 18, 11:05am

Fri Sep 18, 10:05am

Fri Sep 18, 9:04am

Fri Sep 18, 8:04am

Fri Sep 18, 7:04am

Fri Sep 18, 6:04am

Fri Sep 18, 5:04am

Fri Sep 18, 4:04am

Fri Sep 18, 3:04am

Fri Sep 18, 2:04am

Fri Sep 18, 1:04am

Fri Sep 18, 12:04am

Thu Sep 17, 11:05pm

Thu Sep 17, 10:04pm

Thu Sep 17, 9:04pm

Thu Sep 17, 8:05pm

Thu Sep 17, 7:04pm

Thu Sep 17, 6:04pm

Thu Sep 17, 5:04pm

Thu Sep 17, 4:04pm

Thu Sep 17, 3:05pm

Thu Sep 17, 2:04pm

Thu Sep 17, 1:04pm

Thu Sep 17, 12:04pm

Thu Sep 17, 11:04am

Thu Sep 17, 10:04am

Thu Sep 17, 9:04am

Thu Sep 17, 8:04am

Thu Sep 17, 7:04am

Thu Sep 17, 6:04am

Thu Sep 17, 5:04am

Thu Sep 17, 4:04am

Thu Sep 17, 3:04am

Thu Sep 17, 2:05am

Thu Sep 17, 1:05am

Wed Sep 16, 11:04pm

Wed Sep 16, 10:04pm

Wed Sep 16, 9:04pm

Wed Sep 16, 8:05pm

Wed Sep 16, 7:04pm

Wed Sep 16, 6:04pm

Wed Sep 16, 5:04pm

Wed Sep 16, 4:04pm

Wed Sep 16, 3:04pm

Wed Sep 16, 2:04pm

Wed Sep 16, 1:04pm

Wed Sep 16, 12:04pm

Wed Sep 16, 11:04am

Wed Sep 16, 10:04am

Wed Sep 16, 9:04am

Wed Sep 16, 8:04am

Wed Sep 16, 7:04am

Wed Sep 16, 6:04am

Wed Sep 16, 5:04am

Wed Sep 16, 4:04am

Wed Sep 16, 3:04am

Wed Sep 16, 2:04am

Wed Sep 16, 1:04am

Wed Sep 16, 12:05am

Tue Sep 15, 11:04pm

Tue Sep 15, 10:04pm

Tue Sep 15, 9:04pm

Tue Sep 15, 8:04pm

Tue Sep 15, 7:04pm

Tue Sep 15, 6:04pm

Tue Sep 15, 5:04pm

Tue Sep 15, 4:05pm

Tue Sep 15, 3:04pm

Tue Sep 15, 2:04pm

Tue Sep 15, 1:04pm

Tue Sep 15, 12:04pm

Tue Sep 15, 11:04am

Tue Sep 15, 10:04am

Tue Sep 15, 9:04am

Tue Sep 15, 8:04am

Tue Sep 15, 7:04am

Tue Sep 15, 6:04am

Tue Sep 15, 5:04am

Tue Sep 15, 4:04am

Tue Sep 15, 3:04am

Tue Sep 15, 2:04am

Tue Sep 15, 1:04am

Tue Sep 15, 12:05am

Mon Sep 14, 11:04pm

Mon Sep 14, 10:04pm

Mon Sep 14, 9:04pm

Mon Sep 14, 8:04pm

Mon Sep 14, 7:04pm

Mon Sep 14, 6:04pm

Mon Sep 14, 5:04pm

Mon Sep 14, 4:05pm

Mon Sep 14, 3:04pm

Mon Sep 14, 2:05pm

Mon Sep 14, 1:04pm

Mon Sep 14, 12:04pm

Mon Sep 14, 11:04am

Mon Sep 14, 10:05am

Mon Sep 14, 9:04am

Mon Sep 14, 8:04am

Mon Sep 14, 7:04am

Mon Sep 14, 6:04am

Mon Sep 14, 5:04am

Mon Sep 14, 4:04am

Mon Sep 14, 3:04am

Mon Sep 14, 2:04am

Mon Sep 14, 1:04am

Mon Sep 14, 12:04am

Sun Sep 13, 11:05pm

Sun Sep 13, 10:04pm

Sun Sep 13, 9:04pm

Sun Sep 13, 8:04pm

Sun Sep 13, 7:05pm

Sun Sep 13, 6:05pm

Sun Sep 13, 5:05pm

Sun Sep 13, 4:04pm

Sun Sep 13, 3:04pm

Sun Sep 13, 2:04pm

Sun Sep 13, 1:04pm

Sun Sep 13, 12:04pm

Sun Sep 13, 11:05am

Sun Sep 13, 10:04am

Sun Sep 13, 9:04am

Sun Sep 13, 8:04am

Sun Sep 13, 7:04am

Sun Sep 13, 6:04am

Sun Sep 13, 5:04am

Sun Sep 13, 4:04am

Sun Sep 13, 3:04am

Sun Sep 13, 2:04am

Sun Sep 13, 1:04am

Sun Sep 13, 12:04am

Sat Sep 12, 11:04pm

Sat Sep 12, 10:04pm

Sat Sep 12, 9:04pm

Sat Sep 12, 8:04pm

Sat Sep 12, 7:05pm

Sat Sep 12, 6:04pm

Sat Sep 12, 5:04pm

Sat Sep 12, 4:05pm

Sat Sep 12, 3:04pm

Sat Sep 12, 2:04pm

Sat Sep 12, 1:05pm

Sat Sep 12, 12:04pm

Sat Sep 12, 11:04am

Sat Sep 12, 10:04am

Sat Sep 12, 9:04am

Sat Sep 12, 8:04am

Meta data:

ID: 59af5dcd-d032-4a13-8996-76398bb45ddb
Link: https://api.weather.gov/products/59af5dcd-d032-4a13-8996-76398bb45ddb